Thurmaston, United Kingdom
Current Conditions -  °F | °C
As of 5:20 PM on Thursday 30 Oct 2014 (Local Time) from EGNX Reporting Station
Broken Clouds Broken Clouds  
Wind Chill: 61°   Ceiling: 3500
Heat Index: 61°   Visibility: 6mi
Dew Point: 57°   Wind: 7mph
Humidity: 88%   Direction: 180°S
Pressure: 30.03"   Gusts: NA
Location:  52.68°N, 1.09°W
Report Text: EGNX 301720Z 18006KT 9999 SCT029 BKN035 16/14 Q1017
Loading
Personal Weather Stations






























Interactive Weather Map
Tropical Storm Tracking
New forecast layout! Learn more

10-Day Weather Forecast

Advertisements
Track Severe Weather on mobile